N36DB KTUS-KSEZ

Flight info

Callsign N36DB
Flight time 1h 18m
Altitude 12000
Route KTUS TO KSEZ VIA HEBRI AVOME OPRAE MMEAT PICLI WINRR PXR MAHEM MINGY
Aircraft COL4/L-V/N

Departure

Time 2026-04-30 20:26
Airport Tucson International Airport (KTUS)

Arrival

Time 2026-04-30 21:44
Airport Sedona Airport (KSEZ)
Time Latitude Longitude Altitude Speed Heading
2026-04-30 20:16 32.12430 -110.94488 2573 ft 0 kts 319°
2026-04-30 20:21 32.12439 -110.94506 2573 ft 8 kts 298°
2026-04-30 20:22 32.12455 -110.94591 2571 ft 12 kts 267°
2026-04-30 20:22 32.12456 -110.94666 2572 ft 9 kts 195°
2026-04-30 20:22 32.12413 -110.94686 2573 ft 5 kts 219°
2026-04-30 20:22 32.12387 -110.94717 2573 ft 0 kts 226°
2026-04-30 20:23 32.12383 -110.94721 2573 ft 2 kts 226°
2026-04-30 20:24 32.12362 -110.94746 2574 ft 6 kts 224°
2026-04-30 20:24 32.12309 -110.94740 2574 ft 11 kts 131°
2026-04-30 20:24 32.12259 -110.94685 2577 ft 8 kts 135°
2026-04-30 20:24 32.12172 -110.94586 2576 ft 35 kts 138°
2026-04-30 20:25 32.11424 -110.93709 2727 ft 98 kts 137°
2026-04-30 20:25 32.10868 -110.93238 2940 ft 102 kts 139°
2026-04-30 20:26 32.10449 -110.91698 3274 ft 102 kts 109°
2026-04-30 20:26 32.10173 -110.90002 3675 ft 108 kts 98°
2026-04-30 20:26 32.10302 -110.89116 3773 ft 116 kts 72°
2026-04-30 20:27 32.10148 -110.87288 4162 ft 116 kts 104°
2026-04-30 20:27 32.09786 -110.85460 4664 ft 116 kts 107°
2026-04-30 20:28 32.09401 -110.83603 5088 ft 117 kts 108°
2026-04-30 20:28 32.09007 -110.81737 5577 ft 117 kts 110°
2026-04-30 20:29 32.08787 -110.79823 5904 ft 126 kts 74°
2026-04-30 20:30 32.10773 -110.77787 6469 ft 129 kts 35°
2026-04-30 20:30 32.12990 -110.75990 6996 ft 128 kts 36°
2026-04-30 20:31 32.15229 -110.74181 7771 ft 130 kts 34°
2026-04-30 20:32 32.17600 -110.72791 8740 ft 128 kts 349°
2026-04-30 20:32 32.19004 -110.73855 9339 ft 124 kts 310°
2026-04-30 20:33 32.19629 -110.74552 9659 ft 123 kts 310°
2026-04-30 20:33 32.20844 -110.75963 10258 ft 123 kts 310°
2026-04-30 20:33 32.21459 -110.76679 10552 ft 122 kts 307°
2026-04-30 20:34 32.22666 -110.78094 11111 ft 122 kts 309°
2026-04-30 20:34 32.23877 -110.79513 11693 ft 121 kts 309°
2026-04-30 20:35 32.24470 -110.80211 11973 ft 120 kts 308°
2026-04-30 20:35 32.24899 -110.81113 12013 ft 134 kts 281°
2026-04-30 20:35 32.25447 -110.83459 12020 ft 159 kts 283°
2026-04-30 20:36 32.25756 -110.84728 12102 ft 163 kts 283°
2026-04-30 20:36 32.26071 -110.86035 12108 ft 167 kts 283°
2026-04-30 20:36 32.26711 -110.88715 12110 ft 173 kts 283°
2026-04-30 20:37 32.27041 -110.90097 12111 ft 174 kts 283°
2026-04-30 20:37 32.27371 -110.91472 12110 ft 175 kts 283°
2026-04-30 20:37 32.27595 -110.92411 12108 ft 175 kts 283°
2026-04-30 20:37 32.27923 -110.93776 12106 ft 175 kts 283°
2026-04-30 20:38 32.28361 -110.95613 12106 ft 174 kts 283°
2026-04-30 20:38 32.28581 -110.96532 12105 ft 174 kts 283°
2026-04-30 20:38 32.28906 -110.97900 12099 ft 174 kts 283°
2026-04-30 20:39 32.29654 -111.00609 12090 ft 176 kts 297°
2026-04-30 20:39 32.30455 -111.01713 12087 ft 178 kts 311°
2026-04-30 20:39 32.31293 -111.02776 12085 ft 177 kts 308°
2026-04-30 20:40 32.32973 -111.04944 12058 ft 178 kts 309°
2026-04-30 20:40 32.33808 -111.06010 12057 ft 178 kts 309°
2026-04-30 20:40 32.34657 -111.07096 12057 ft 178 kts 309°
2026-04-30 20:41 32.36332 -111.09238 12060 ft 178 kts 309°
2026-04-30 20:41 32.37186 -111.10332 12061 ft 179 kts 309°
2026-04-30 20:41 32.38036 -111.11421 12064 ft 179 kts 308°
2026-04-30 20:41 32.38874 -111.12496 12066 ft 179 kts 309°
2026-04-30 20:42 32.39717 -111.13574 12066 ft 180 kts 309°
2026-04-30 20:42 32.40564 -111.14659 12066 ft 179 kts 309°
2026-04-30 20:42 32.42256 -111.16830 12055 ft 179 kts 308°
2026-04-30 20:43 32.43109 -111.17925 12053 ft 179 kts 308°
2026-04-30 20:43 32.43956 -111.19010 12053 ft 178 kts 309°
2026-04-30 20:43 32.44786 -111.20077 12054 ft 178 kts 309°
2026-04-30 20:44 32.46478 -111.22247 12056 ft 178 kts 309°
2026-04-30 20:44 32.47312 -111.23320 12054 ft 179 kts 309°
2026-04-30 20:44 32.48999 -111.25493 12064 ft 180 kts 309°
2026-04-30 20:45 32.50710 -111.27688 12063 ft 180 kts 309°
2026-04-30 20:45 32.51561 -111.28785 12066 ft 180 kts 309°
2026-04-30 20:45 32.52409 -111.29875 12062 ft 180 kts 309°
2026-04-30 20:46 32.54949 -111.33145 12059 ft 178 kts 309°
2026-04-30 20:46 32.55786 -111.34224 12060 ft 178 kts 309°
2026-04-30 20:47 32.57464 -111.36389 12059 ft 178 kts 309°
2026-04-30 20:47 32.58300 -111.37467 12058 ft 176 kts 309°
2026-04-30 20:48 32.59960 -111.39609 12050 ft 177 kts 309°
2026-04-30 20:48 32.60790 -111.40680 12054 ft 178 kts 309°
2026-04-30 20:48 32.61639 -111.41774 12051 ft 179 kts 309°
2026-04-30 20:48 32.62483 -111.42867 12050 ft 180 kts 309°
2026-04-30 20:49 32.63332 -111.43962 12046 ft 180 kts 309°
2026-04-30 20:49 32.64185 -111.45065 12041 ft 181 kts 309°
2026-04-30 20:49 32.65021 -111.46147 12031 ft 180 kts 309°
2026-04-30 20:50 32.66765 -111.48304 12027 ft 181 kts 317°
2026-04-30 20:50 32.67728 -111.49229 12025 ft 180 kts 317°
2026-04-30 20:50 32.68703 -111.50198 12022 ft 181 kts 316°
2026-04-30 20:50 32.69663 -111.51157 12018 ft 181 kts 316°
2026-04-30 20:51 32.70637 -111.52127 12013 ft 182 kts 316°
2026-04-30 20:51 32.72565 -111.54051 12007 ft 181 kts 316°
2026-04-30 20:51 32.73545 -111.55026 12007 ft 182 kts 316°
2026-04-30 20:52 32.74502 -111.55981 12005 ft 183 kts 316°
2026-04-30 20:52 32.75481 -111.56960 12004 ft 182 kts 316°
2026-04-30 20:52 32.77413 -111.58892 11959 ft 184 kts 316°
2026-04-30 20:53 32.78389 -111.59864 11962 ft 182 kts 316°
2026-04-30 20:53 32.79364 -111.60836 11971 ft 182 kts 316°
2026-04-30 20:53 32.80310 -111.61784 11974 ft 181 kts 316°
2026-04-30 20:54 32.82231 -111.63705 11981 ft 182 kts 316°
2026-04-30 20:54 32.83205 -111.64680 11989 ft 181 kts 316°
2026-04-30 20:54 32.84177 -111.65653 11990 ft 182 kts 316°
2026-04-30 20:55 32.86117 -111.67592 11996 ft 183 kts 316°
2026-04-30 20:55 32.87092 -111.68571 11998 ft 182 kts 316°
2026-04-30 20:55 32.88050 -111.69531 12005 ft 182 kts 316°
2026-04-30 20:56 32.89991 -111.71477 12006 ft 183 kts 316°
2026-04-30 20:56 32.90028 -111.71513 12007 ft 183 kts 316°
2026-04-30 20:56 32.90722 -111.72209 12008 ft 183 kts 316°
2026-04-30 20:57 32.91689 -111.73179 12002 ft 183 kts 316°
2026-04-30 20:57 32.92662 -111.74155 12004 ft 182 kts 316°
2026-04-30 20:57 32.93628 -111.75123 12007 ft 182 kts 316°
2026-04-30 20:58 32.95581 -111.77086 12002 ft 183 kts 316°
2026-04-30 20:58 32.96549 -111.78058 12002 ft 182 kts 316°
2026-04-30 20:58 32.97516 -111.79030 12005 ft 182 kts 316°
2026-04-30 20:58 32.98473 -111.79991 12002 ft 182 kts 316°
2026-04-30 20:59 33.00418 -111.81946 12005 ft 183 kts 316°
2026-04-30 20:59 33.01396 -111.82933 12010 ft 183 kts 316°
2026-04-30 21:00 33.03344 -111.84892 12000 ft 183 kts 316°
2026-04-30 21:00 33.05295 -111.86856 11987 ft 183 kts 317°
2026-04-30 21:01 33.07240 -111.88817 11980 ft 183 kts 317°
2026-04-30 21:01 33.08217 -111.89800 11983 ft 183 kts 317°
2026-04-30 21:01 33.10151 -111.91754 11938 ft 183 kts 317°
2026-04-30 21:02 33.11118 -111.92726 11942 ft 183 kts 317°
2026-04-30 21:02 33.12245 -111.93462 11931 ft 186 kts 342°
2026-04-30 21:02 33.13525 -111.93662 11936 ft 187 kts 354°
2026-04-30 21:02 33.14824 -111.93802 11941 ft 187 kts 352°
2026-04-30 21:03 33.16121 -111.93957 11944 ft 187 kts 352°
2026-04-30 21:03 33.17411 -111.94103 11947 ft 188 kts 352°
2026-04-30 21:03 33.18717 -111.94250 11948 ft 188 kts 353°
2026-04-30 21:03 33.20022 -111.94394 11949 ft 189 kts 352°
2026-04-30 21:04 33.21341 -111.94543 11950 ft 188 kts 352°
2026-04-30 21:04 33.22639 -111.94689 11954 ft 188 kts 353°
2026-04-30 21:04 33.25250 -111.94983 11955 ft 188 kts 353°
2026-04-30 21:05 33.26543 -111.95130 11953 ft 187 kts 353°
2026-04-30 21:05 33.27820 -111.95273 11958 ft 187 kts 353°
2026-04-30 21:05 33.29141 -111.95422 11957 ft 188 kts 353°
2026-04-30 21:05 33.30429 -111.95566 11954 ft 187 kts 352°
2026-04-30 21:06 33.31730 -111.95715 11939 ft 187 kts 352°
2026-04-30 21:06 33.33021 -111.95860 11944 ft 187 kts 353°
2026-04-30 21:06 33.34321 -111.96008 11940 ft 186 kts 352°
2026-04-30 21:06 33.35607 -111.96150 11945 ft 186 kts 353°
2026-04-30 21:07 33.36881 -111.96295 11944 ft 185 kts 353°
2026-04-30 21:07 33.38181 -111.96441 11944 ft 185 kts 353°
2026-04-30 21:07 33.39465 -111.96585 11946 ft 185 kts 353°
2026-04-30 21:07 33.40733 -111.96728 11946 ft 184 kts 353°
2026-04-30 21:08 33.42012 -111.96874 11944 ft 184 kts 353°
2026-04-30 21:08 33.43282 -111.97021 11942 ft 184 kts 352°
2026-04-30 21:08 33.44546 -111.97331 11942 ft 183 kts 345°
2026-04-30 21:08 33.45786 -111.97658 11941 ft 182 kts 346°
2026-04-30 21:09 33.47022 -111.97967 11942 ft 183 kts 346°
2026-04-30 21:09 33.48279 -111.98284 11942 ft 183 kts 346°
2026-04-30 21:09 33.49508 -111.98595 11942 ft 183 kts 346°
2026-04-30 21:09 33.50757 -111.98912 11943 ft 182 kts 346°
2026-04-30 21:10 33.51581 -111.99122 11944 ft 182 kts 347°
2026-04-30 21:10 33.53235 -111.99542 11942 ft 182 kts 347°
2026-04-30 21:10 33.54072 -111.99755 11943 ft 182 kts 347°
2026-04-30 21:10 33.55301 -112.00066 11980 ft 182 kts 347°
2026-04-30 21:11 33.56542 -112.00380 11978 ft 181 kts 347°
2026-04-30 21:11 33.57770 -112.00694 11978 ft 181 kts 347°
2026-04-30 21:11 33.58995 -112.01007 11981 ft 181 kts 346°
2026-04-30 21:11 33.60235 -112.01322 11980 ft 180 kts 347°
2026-04-30 21:12 33.61460 -112.01632 11980 ft 180 kts 346°
2026-04-30 21:12 33.62690 -112.01946 11970 ft 179 kts 347°
2026-04-30 21:12 33.63890 -112.02251 11971 ft 179 kts 347°
2026-04-30 21:12 33.65120 -112.02568 11971 ft 179 kts 346°
2026-04-30 21:13 33.66331 -112.02875 11970 ft 178 kts 346°
2026-04-30 21:13 33.67539 -112.03181 11971 ft 178 kts 347°
2026-04-30 21:13 33.68747 -112.03489 11973 ft 178 kts 347°
2026-04-30 21:13 33.69965 -112.03801 11973 ft 178 kts 347°
2026-04-30 21:14 33.71172 -112.04110 11970 ft 178 kts 347°
2026-04-30 21:14 33.72385 -112.04419 11968 ft 178 kts 347°
2026-04-30 21:14 33.73610 -112.04731 11969 ft 177 kts 347°
2026-04-30 21:14 33.74802 -112.05033 11969 ft 177 kts 347°
2026-04-30 21:15 33.76022 -112.05347 11969 ft 177 kts 347°
2026-04-30 21:15 33.77218 -112.05652 11972 ft 177 kts 347°
2026-04-30 21:15 33.78436 -112.05965 11968 ft 178 kts 347°
2026-04-30 21:15 33.79645 -112.06275 11966 ft 177 kts 347°
2026-04-30 21:16 33.80842 -112.06579 11965 ft 177 kts 347°
2026-04-30 21:16 33.82053 -112.06890 11961 ft 177 kts 347°
2026-04-30 21:16 33.83266 -112.07199 11958 ft 176 kts 347°
2026-04-30 21:16 33.84444 -112.07501 11957 ft 176 kts 347°
2026-04-30 21:17 33.85649 -112.07810 11954 ft 176 kts 347°
2026-04-30 21:17 33.86847 -112.08115 11953 ft 176 kts 347°
2026-04-30 21:17 33.88054 -112.08425 11952 ft 176 kts 347°
2026-04-30 21:17 33.89237 -112.08729 11951 ft 176 kts 347°
2026-04-30 21:18 33.90450 -112.09040 11948 ft 176 kts 347°
2026-04-30 21:18 33.91647 -112.09347 11947 ft 176 kts 347°
2026-04-30 21:18 33.92835 -112.09652 11943 ft 175 kts 347°
2026-04-30 21:18 33.94030 -112.09959 11941 ft 176 kts 347°
2026-04-30 21:19 33.95234 -112.10266 11940 ft 176 kts 347°
2026-04-30 21:19 33.96448 -112.10577 11936 ft 177 kts 347°
2026-04-30 21:19 33.97654 -112.10888 11938 ft 177 kts 347°
2026-04-30 21:19 33.98856 -112.11197 11936 ft 176 kts 347°
2026-04-30 21:20 34.00065 -112.11407 11926 ft 177 kts
2026-04-30 21:20 34.01248 -112.11068 11925 ft 179 kts 21°
2026-04-30 21:20 34.02340 -112.10334 11923 ft 179 kts 28°
2026-04-30 21:20 34.03440 -112.09609 11923 ft 180 kts 26°
2026-04-30 21:21 34.04524 -112.08898 11918 ft 180 kts 26°
2026-04-30 21:21 34.05618 -112.08165 11921 ft 179 kts 27°
2026-04-30 21:21 34.07817 -112.06695 11922 ft 181 kts 27°
2026-04-30 21:22 34.08930 -112.05952 11922 ft 181 kts 27°
2026-04-30 21:22 34.12227 -112.03744 11964 ft 181 kts 27°
2026-04-30 21:23 34.13355 -112.02988 11964 ft 183 kts 27°
2026-04-30 21:23 34.14459 -112.02251 11966 ft 183 kts 26°
2026-04-30 21:23 34.16685 -112.00758 11964 ft 183 kts 27°
2026-04-30 21:24 34.17776 -112.00028 11963 ft 176 kts 27°
2026-04-30 21:24 34.18854 -111.99304 11963 ft 178 kts 26°
2026-04-30 21:24 34.19931 -111.98583 11961 ft 179 kts 26°
2026-04-30 21:24 34.21026 -111.97849 11964 ft 180 kts 27°
2026-04-30 21:25 34.23227 -111.96371 11967 ft 181 kts 26°
2026-04-30 21:25 34.24334 -111.95627 11972 ft 182 kts 26°
2026-04-30 21:25 34.25451 -111.94883 11970 ft 183 kts 26°
2026-04-30 21:26 34.27681 -111.93376 11968 ft 184 kts 26°
2026-04-30 21:26 34.28803 -111.92627 11972 ft 185 kts 27°
2026-04-30 21:27 34.31049 -111.91115 11972 ft 185 kts 27°
2026-04-30 21:27 34.32181 -111.90354 11970 ft 186 kts 26°
2026-04-30 21:27 34.33327 -111.89590 11967 ft 187 kts 27°
2026-04-30 21:28 34.35593 -111.88052 11973 ft 187 kts 27°
2026-04-30 21:28 34.36738 -111.87282 11967 ft 188 kts 27°
2026-04-30 21:28 34.38933 -111.85799 11638 ft 179 kts 27°
2026-04-30 21:29 34.40023 -111.85061 11265 ft 180 kts 26°
2026-04-30 21:29 34.43292 -111.82883 10198 ft 177 kts 27°
2026-04-30 21:30 34.45427 -111.81415 9476 ft 175 kts 27°
2026-04-30 21:31 34.48491 -111.79351 8964 ft 156 kts 27°
2026-04-30 21:31 34.50390 -111.78074 8981 ft 164 kts 27°
2026-04-30 21:32 34.52465 -111.76670 9008 ft 177 kts 27°
2026-04-30 21:32 34.53566 -111.75924 9019 ft 181 kts 27°
2026-04-30 21:32 34.54686 -111.75230 9015 ft 182 kts 17°
2026-04-30 21:32 34.55935 -111.75106 9021 ft 181 kts 353°
2026-04-30 21:33 34.57185 -111.75287 9032 ft 180 kts 351°
2026-04-30 21:33 34.59250 -111.76781 9030 ft 177 kts 337°
2026-04-30 21:33 34.60472 -111.76805 9052 ft 181 kts 10°
2026-04-30 21:34 34.61710 -111.76465 9069 ft 182 kts 11°
2026-04-30 21:34 34.64138 -111.75524 9086 ft 184 kts 17°
2026-04-30 21:34 34.65355 -111.75034 9095 ft 185 kts 17°
2026-04-30 21:35 34.66573 -111.74539 9100 ft 184 kts 17°
2026-04-30 21:35 34.67778 -111.74053 9110 ft 183 kts 17°
2026-04-30 21:35 34.69004 -111.73549 9119 ft 184 kts 17°
2026-04-30 21:35 34.70215 -111.73057 9125 ft 185 kts 16°
2026-04-30 21:36 34.71426 -111.72577 9133 ft 185 kts 17°
2026-04-30 21:36 34.72656 -111.72077 9138 ft 185 kts 17°
2026-04-30 21:37 34.76351 -111.70587 9157 ft 187 kts 17°
2026-04-30 21:37 34.77555 -111.70104 9146 ft 175 kts 17°
2026-04-30 21:37 34.78675 -111.69641 9137 ft 165 kts 17°
2026-04-30 21:37 34.79720 -111.69205 9144 ft 153 kts 17°
2026-04-30 21:38 34.80708 -111.68798 9132 ft 142 kts 16°
2026-04-30 21:38 34.81642 -111.68419 8934 ft 143 kts 16°
2026-04-30 21:38 34.82566 -111.68037 8697 ft 142 kts 18°
2026-04-30 21:38 34.83501 -111.67639 8447 ft 141 kts 18°
2026-04-30 21:39 34.84429 -111.67260 8291 ft 141 kts 17°
2026-04-30 21:39 34.85359 -111.66868 8145 ft 140 kts 17°
2026-04-30 21:39 34.86294 -111.66492 8019 ft 141 kts 16°
2026-04-30 21:39 34.87223 -111.66563 7892 ft 136 kts 329°
2026-04-30 21:40 34.87751 -111.67471 7710 ft 129 kts 289°
2026-04-30 21:40 34.88073 -111.68449 7586 ft 125 kts 292°
2026-04-30 21:40 34.88415 -111.69460 7390 ft 131 kts 287°
2026-04-30 21:40 34.88663 -111.70506 7378 ft 119 kts 287°
2026-04-30 21:41 34.88870 -111.71462 7064 ft 117 kts 276°
2026-04-30 21:41 34.88942 -111.72434 6909 ft 109 kts 270°
2026-04-30 21:41 34.88830 -111.73297 6913 ft 93 kts 255°
2026-04-30 21:41 34.88570 -111.74006 6732 ft 91 kts 236°
2026-04-30 21:42 34.88163 -111.74566 6467 ft 89 kts 220°
2026-04-30 21:42 34.87712 -111.75078 6169 ft 86 kts 230°
2026-04-30 21:42 34.87331 -111.75628 5980 ft 82 kts 232°
2026-04-30 21:42 34.86945 -111.76155 5790 ft 84 kts 236°
2026-04-30 21:43 34.86539 -111.76704 5585 ft 90 kts 223°
2026-04-30 21:43 34.86227 -111.77067 5326 ft 94 kts 229°
2026-04-30 21:43 34.85834 -111.77646 5169 ft 84 kts 227°
2026-04-30 21:43 34.85301 -111.78305 4877 ft 72 kts 225°
2026-04-30 21:44 34.84976 -111.78693 4795 ft 54 kts 223°
2026-04-30 21:44 34.84893 -111.78786 4786 ft 9 kts 236°
2026-04-30 21:44 34.84900 -111.78883 4785 ft 9 kts 317°
2026-04-30 21:44 34.84927 -111.78918 4786 ft 7 kts 296°
2026-04-30 21:45 34.84938 -111.78953 4787 ft 0 kts 320°